DAL5729 KSBP-KLAS

Flight info

Callsign DAL5729
Flight time 0h 56m
Altitude 35000
Route DERBB MARIC PMD HELDE MISEN RNDRZ4
Aircraft B739/M-SDE2E3FGHIRWXY/LB1

Departure

Time 2026-05-08 02:01
Airport San Luis County Regional Airport (KSBP)

Arrival

Time 2026-05-08 02:57
Airport Harry Reid International Airport (KLAS)
Time Latitude Longitude Altitude Speed Heading
2026-05-08 01:44 35.23784 -120.63851 212 ft 0 kts 157°
2026-05-08 01:56 35.23779 -120.63850 210 ft 4 kts 165°
2026-05-08 01:57 35.23747 -120.63855 211 ft 8 kts 193°
2026-05-08 01:57 35.23694 -120.63837 209 ft 12 kts 130°
2026-05-08 01:57 35.23642 -120.63748 213 ft 13 kts 124°
2026-05-08 01:57 35.23591 -120.63660 209 ft 13 kts 124°
2026-05-08 01:58 35.23535 -120.63562 212 ft 15 kts 124°
2026-05-08 01:58 35.23477 -120.63459 215 ft 14 kts 124°
2026-05-08 01:58 35.23420 -120.63362 223 ft 14 kts 124°
2026-05-08 01:58 35.23382 -120.63294 221 ft 4 kts 124°
2026-05-08 01:59 35.23364 -120.63264 224 ft 4 kts 130°
2026-05-08 01:59 35.23336 -120.63247 223 ft 7 kts 169°
2026-05-08 01:59 35.23284 -120.63295 224 ft 11 kts 263°
2026-05-08 01:59 35.23300 -120.63343 221 ft 0 kts 303°
2026-05-08 02:00 35.23307 -120.63356 220 ft 19 kts 304°
2026-05-08 02:00 35.23559 -120.63798 206 ft 105 kts 305°
2026-05-08 02:01 35.24121 -120.64746 274 ft 162 kts 307°
2026-05-08 02:01 35.24833 -120.65903 1038 ft 174 kts 307°
2026-05-08 02:01 35.25334 -120.66738 1391 ft 195 kts 304°
2026-05-08 02:01 35.26478 -120.68784 1893 ft 240 kts 304°
2026-05-08 02:02 35.27456 -120.70522 2608 ft 255 kts 304°
2026-05-08 02:02 35.28479 -120.72317 3548 ft 259 kts 306°
2026-05-08 02:02 35.29172 -120.73519 4220 ft 262 kts 307°
2026-05-08 02:02 35.30233 -120.75344 5314 ft 266 kts 307°
2026-05-08 02:03 35.31683 -120.77821 6686 ft 272 kts 307°
2026-05-08 02:03 35.32790 -120.79709 7731 ft 275 kts 306°
2026-05-08 02:03 35.33546 -120.80998 8421 ft 276 kts 306°
2026-05-08 02:03 35.34487 -120.83056 9450 ft 279 kts 284°
2026-05-08 02:04 35.34285 -120.86161 10624 ft 288 kts 245°
2026-05-08 02:04 35.33586 -120.87595 11168 ft 293 kts 234°
2026-05-08 02:04 35.32167 -120.89417 11994 ft 301 kts 213°
2026-05-08 02:04 35.30217 -120.90343 12829 ft 307 kts 187°
2026-05-08 02:05 35.28067 -120.90167 13524 ft 319 kts 163°
2026-05-08 02:05 35.26010 -120.88929 13751 ft 345 kts 142°
2026-05-08 02:05 35.24316 -120.86759 14149 ft 361 kts 123°
2026-05-08 02:05 35.23261 -120.83958 14826 ft 366 kts 103°
2026-05-08 02:06 35.23129 -120.80865 15616 ft 368 kts 79°
2026-05-08 02:06 35.23923 -120.77898 16440 ft 369 kts 67°
2026-05-08 02:06 35.24854 -120.74946 17191 ft 375 kts 71°
2026-05-08 02:06 35.25406 -120.71808 17920 ft 381 kts 83°
2026-05-08 02:07 35.25558 -120.68555 18644 ft 385 kts 88°
2026-05-08 02:07 35.25550 -120.65265 19326 ft 389 kts 90°
2026-05-08 02:07 35.25499 -120.61942 19988 ft 392 kts 90°
2026-05-08 02:07 35.25452 -120.58590 20631 ft 396 kts 90°
2026-05-08 02:08 35.25424 -120.55212 21266 ft 399 kts 90°
2026-05-08 02:08 35.25414 -120.51800 21885 ft 403 kts 89°
2026-05-08 02:08 35.25418 -120.48404 22503 ft 406 kts 89°
2026-05-08 02:08 35.25430 -120.44936 23060 ft 410 kts 89°
2026-05-08 02:09 35.25446 -120.41386 23619 ft 413 kts 89°
2026-05-08 02:09 35.25464 -120.37903 24076 ft 417 kts 89°
2026-05-08 02:09 35.25481 -120.34348 24562 ft 419 kts 89°
2026-05-08 02:09 35.25498 -120.30778 25043 ft 421 kts 89°
2026-05-08 02:10 35.25513 -120.27192 25490 ft 423 kts 89°
2026-05-08 02:10 35.25527 -120.23576 25939 ft 426 kts 89°
2026-05-08 02:10 35.25540 -120.19948 26354 ft 428 kts 89°
2026-05-08 02:10 35.25551 -120.16309 26961 ft 425 kts 89°
2026-05-08 02:11 35.25562 -120.12709 27631 ft 422 kts 89°
2026-05-08 02:11 35.25571 -120.09132 28196 ft 420 kts 89°
2026-05-08 02:11 35.25579 -120.05555 28705 ft 420 kts 89°
2026-05-08 02:11 35.25536 -120.01981 29217 ft 420 kts 90°
2026-05-08 02:12 35.25439 -119.98418 29734 ft 419 kts 91°
2026-05-08 02:12 35.25326 -119.94868 30226 ft 417 kts 91°
2026-05-08 02:12 35.25222 -119.91324 30636 ft 417 kts 91°
2026-05-08 02:12 35.25122 -119.87786 31011 ft 416 kts 91°
2026-05-08 02:13 35.25022 -119.84251 31399 ft 416 kts 91°
2026-05-08 02:13 35.24922 -119.80724 31782 ft 415 kts 91°
2026-05-08 02:13 35.24820 -119.77195 32140 ft 414 kts 91°
2026-05-08 02:13 35.24717 -119.73673 32477 ft 414 kts 91°
2026-05-08 02:14 35.24612 -119.70153 32809 ft 414 kts 91°
2026-05-08 02:14 35.24506 -119.66627 33072 ft 416 kts 91°
2026-05-08 02:14 35.24398 -119.63086 33290 ft 418 kts 91°
2026-05-08 02:14 35.24291 -119.59577 33516 ft 420 kts 91°
2026-05-08 02:15 35.24179 -119.56005 33814 ft 420 kts 91°
2026-05-08 02:15 35.24067 -119.52445 34130 ft 418 kts 91°
2026-05-08 02:15 35.23955 -119.48888 34376 ft 418 kts 91°
2026-05-08 02:15 35.23841 -119.45320 34488 ft 422 kts 91°
2026-05-08 02:16 35.23606 -119.38056 34581 ft 432 kts 91°
2026-05-08 02:16 35.23361 -119.30626 34679 ft 442 kts 91°
2026-05-08 02:17 35.23105 -119.23042 34770 ft 451 kts 91°
2026-05-08 02:17 35.22840 -119.15308 34946 ft 457 kts 91°
2026-05-08 02:18 35.22566 -119.07465 35002 ft 466 kts 91°
2026-05-08 02:18 35.22282 -118.99493 35003 ft 471 kts 91°
2026-05-08 02:19 35.21990 -118.91466 35009 ft 473 kts 91°
2026-05-08 02:19 35.21693 -118.83420 35015 ft 474 kts 91°
2026-05-08 02:20 35.21390 -118.75361 35070 ft 475 kts 91°
2026-05-08 02:20 35.21082 -118.67300 35108 ft 475 kts 91°
2026-05-08 02:21 35.20767 -118.59235 35136 ft 474 kts 91°
2026-05-08 02:21 35.20448 -118.51188 35161 ft 473 kts 91°
2026-05-08 02:22 35.20125 -118.43159 35174 ft 473 kts 91°
2026-05-08 02:22 35.19798 -118.35133 35160 ft 472 kts 91°
2026-05-08 02:23 35.19465 -118.27129 35128 ft 472 kts 91°
2026-05-08 02:23 35.19298 -118.23178 35008 ft 471 kts 91°
2026-05-08 02:23 35.19129 -118.19178 35012 ft 471 kts 91°
2026-05-08 02:24 35.18785 -118.11176 35006 ft 471 kts 91°
2026-05-08 02:24 35.18437 -118.03182 35008 ft 471 kts 91°
2026-05-08 02:25 35.18085 -117.95183 34984 ft 471 kts 91°
2026-05-08 02:25 35.17726 -117.87186 34961 ft 471 kts 91°
2026-05-08 02:26 35.17363 -117.79188 34935 ft 471 kts 91°
2026-05-08 02:26 35.16993 -117.71191 34924 ft 471 kts 91°
2026-05-08 02:27 35.16616 -117.63197 34912 ft 471 kts 91°
2026-05-08 02:27 35.16236 -117.55196 34903 ft 472 kts 91°
2026-05-08 02:28 35.15849 -117.47191 34903 ft 472 kts 91°
2026-05-08 02:28 35.15469 -117.39408 34903 ft 472 kts 91°
2026-05-08 02:29 35.15074 -117.31401 34896 ft 472 kts 91°
2026-05-08 02:29 35.14673 -117.23390 34901 ft 472 kts 91°
2026-05-08 02:30 35.14267 -117.15378 34893 ft 473 kts 91°
2026-05-08 02:30 35.13857 -117.07419 34895 ft 473 kts 91°
2026-05-08 02:31 35.13439 -116.99410 34888 ft 472 kts 91°
2026-05-08 02:31 35.13016 -116.91420 34901 ft 471 kts 91°
2026-05-08 02:32 35.12591 -116.83444 34903 ft 470 kts 91°
2026-05-08 02:32 35.12159 -116.75473 34910 ft 470 kts 91°
2026-05-08 02:33 35.11723 -116.67512 34907 ft 470 kts 91°
2026-05-08 02:33 35.11283 -116.59567 34791 ft 464 kts 91°
2026-05-08 02:34 35.11064 -116.55659 34320 ft 459 kts 91°
2026-05-08 02:34 35.10846 -116.51781 33587 ft 459 kts 91°
2026-05-08 02:34 35.10627 -116.47872 32539 ft 464 kts 91°
2026-05-08 02:34 35.10572 -116.43920 31401 ft 466 kts 80°
2026-05-08 02:35 35.11390 -116.40094 30266 ft 468 kts 65°
2026-05-08 02:35 35.12990 -116.36648 29031 ft 468 kts 50°
2026-05-08 02:35 35.15181 -116.33702 27785 ft 470 kts 44°
2026-05-08 02:35 35.17494 -116.30867 26532 ft 472 kts 44°
2026-05-08 02:36 35.19810 -116.27997 25274 ft 476 kts 45°
2026-05-08 02:36 35.22096 -116.25079 24335 ft 473 kts 45°
2026-05-08 02:36 35.24313 -116.22148 23633 ft 466 kts 47°
2026-05-08 02:36 35.26417 -116.19244 22900 ft 458 kts 47°
2026-05-08 02:37 35.28531 -116.16301 22104 ft 452 kts 47°
2026-05-08 02:37 35.30576 -116.13475 21306 ft 447 kts 47°
2026-05-08 02:37 35.32634 -116.10649 20494 ft 442 kts 47°
2026-05-08 02:37 35.34670 -116.07856 19723 ft 438 kts 47°
2026-05-08 02:38 35.36687 -116.05087 18980 ft 433 kts 47°
2026-05-08 02:38 35.38683 -116.02343 18271 ft 429 kts 47°
2026-05-08 02:38 35.40656 -115.99630 17449 ft 425 kts 47°
2026-05-08 02:38 35.42617 -115.96929 16644 ft 422 kts 47°
2026-05-08 02:39 35.44560 -115.94250 16273 ft 422 kts 47°
2026-05-08 02:39 35.46518 -115.91550 16151 ft 423 kts 47°
2026-05-08 02:39 35.48467 -115.88858 16036 ft 421 kts 47°
2026-05-08 02:39 35.50369 -115.86228 15976 ft 403 kts 47°
2026-05-08 02:40 35.52185 -115.83714 15867 ft 385 kts 47°
2026-05-08 02:40 35.53926 -115.81304 15707 ft 371 kts 47°
2026-05-08 02:40 35.55625 -115.78953 15246 ft 366 kts 47°
2026-05-08 02:40 35.57316 -115.76612 14642 ft 367 kts 47°
2026-05-08 02:41 35.59010 -115.74264 14074 ft 367 kts 47°
2026-05-08 02:41 35.60711 -115.71939 13569 ft 365 kts 46°
2026-05-08 02:41 35.62412 -115.69647 13160 ft 361 kts 46°
2026-05-08 02:41 35.64125 -115.67346 13083 ft 366 kts 46°
2026-05-08 02:42 35.65827 -115.65054 13028 ft 360 kts 46°
2026-05-08 02:42 35.67511 -115.62781 13037 ft 360 kts 46°
2026-05-08 02:42 35.69203 -115.60493 13017 ft 361 kts 46°
2026-05-08 02:42 35.70877 -115.58226 12888 ft 353 kts 46°
2026-05-08 02:43 35.72535 -115.56009 13008 ft 354 kts 43°
2026-05-08 02:43 35.74521 -115.54226 13044 ft 355 kts 28°
2026-05-08 02:43 35.76693 -115.52742 13036 ft 359 kts 27°
2026-05-08 02:43 35.78882 -115.51267 13034 ft 358 kts 27°
2026-05-08 02:44 35.81054 -115.49786 13025 ft 357 kts 28°
2026-05-08 02:44 35.83030 -115.48422 13035 ft 356 kts 28°
2026-05-08 02:44 35.85176 -115.46924 13019 ft 350 kts 28°
2026-05-08 02:44 35.87244 -115.45473 13013 ft 334 kts 28°
2026-05-08 02:45 35.89211 -115.44090 13017 ft 317 kts 28°
2026-05-08 02:45 35.91056 -115.42793 13009 ft 302 kts 28°
2026-05-08 02:45 35.92845 -115.41544 12924 ft 291 kts 27°
2026-05-08 02:45 35.94607 -115.40317 12532 ft 291 kts 28°
2026-05-08 02:46 35.96379 -115.39082 12094 ft 293 kts 27°
2026-05-08 02:46 35.98155 -115.37843 11733 ft 293 kts 27°
2026-05-08 02:46 35.99864 -115.36495 11357 ft 294 kts 41°
2026-05-08 02:46 36.01048 -115.34437 10983 ft 298 kts 65°
2026-05-08 02:47 36.01495 -115.31935 10614 ft 302 kts 87°
2026-05-08 02:47 36.01424 -115.29340 10264 ft 303 kts 92°
2026-05-08 02:47 36.01270 -115.26744 9909 ft 303 kts 92°
2026-05-08 02:47 36.01110 -115.24155 9555 ft 302 kts 93°
2026-05-08 02:48 36.00960 -115.21580 9218 ft 300 kts 92°
2026-05-08 02:48 36.00820 -115.19003 8829 ft 301 kts 92°
2026-05-08 02:48 36.00688 -115.16436 8531 ft 298 kts 92°
2026-05-08 02:48 36.00559 -115.13882 8154 ft 299 kts 93°
2026-05-08 02:49 36.00430 -115.11342 8051 ft 295 kts 93°
2026-05-08 02:49 36.00302 -115.08809 8036 ft 296 kts 93°
2026-05-08 02:49 36.00173 -115.06269 8033 ft 296 kts 93°
2026-05-08 02:49 36.00044 -115.03765 8019 ft 287 kts 93°
2026-05-08 02:50 35.99921 -115.01365 7980 ft 273 kts 92°
2026-05-08 02:50 35.99867 -114.99086 7872 ft 257 kts 90°
2026-05-08 02:50 35.99864 -114.96928 7639 ft 248 kts 89°
2026-05-08 02:50 35.99873 -114.94802 7218 ft 247 kts 89°
2026-05-08 02:51 35.99873 -114.93395 6907 ft 248 kts 90°
2026-05-08 02:51 35.99866 -114.91262 6505 ft 247 kts 90°
2026-05-08 02:51 35.99851 -114.88574 6372 ft 225 kts 87°
2026-05-08 02:51 36.00356 -114.86856 6119 ft 211 kts 46°
2026-05-08 02:52 36.01568 -114.85929 5765 ft 204 kts 14°
2026-05-08 02:52 36.02950 -114.85795 5361 ft 199 kts 348°
2026-05-08 02:52 36.03833 -114.86152 5150 ft 198 kts 329°
2026-05-08 02:52 36.04906 -114.87204 5040 ft 197 kts 307°
2026-05-08 02:53 36.05659 -114.88612 4984 ft 196 kts 299°
2026-05-08 02:53 36.06343 -114.90046 4975 ft 193 kts 299°
2026-05-08 02:53 36.06998 -114.91496 4967 ft 193 kts 290°
2026-05-08 02:53 36.07208 -114.93058 4952 ft 179 kts 275°
2026-05-08 02:54 36.07332 -114.94579 4772 ft 178 kts 274°
2026-05-08 02:54 36.07383 -114.96085 4562 ft 174 kts 270°
2026-05-08 02:54 36.07391 -114.97585 4357 ft 175 kts 269°
2026-05-08 02:54 36.07390 -114.99094 4137 ft 175 kts 269°
2026-05-08 02:55 36.07386 -115.00597 3920 ft 175 kts 269°
2026-05-08 02:55 36.07380 -115.03438 3516 ft 158 kts 269°
2026-05-08 02:55 36.07377 -115.04794 3323 ft 162 kts 268°
2026-05-08 02:56 36.07374 -115.06174 3119 ft 159 kts 269°
2026-05-08 02:56 36.07373 -115.07547 2938 ft 162 kts 269°
2026-05-08 02:56 36.07371 -115.08939 2720 ft 162 kts 270°
2026-05-08 02:56 36.07369 -115.10325 2487 ft 160 kts 269°
2026-05-08 02:57 36.07367 -115.11701 2272 ft 161 kts 269°
2026-05-08 02:57 36.07367 -115.13052 2189 ft 147 kts 269°
2026-05-08 02:57 36.07363 -115.14170 2189 ft 92 kts 270°
2026-05-08 02:57 36.07446 -115.14535 2191 ft 25 kts 303°
2026-05-08 02:58 36.07529 -115.14654 2192 ft 7 kts 344°
2026-05-08 02:58 36.07541 -115.14654 2190 ft 0 kts 360°